Wind_Speed
25 27 27 24 21 22 23 22 21 18 18 18 18 18 17 16 16 17 17 16 15 15 16 17 16 15 15 15 15 16 15 16 17 18 19 20 20 19 17 17 18 18 18 17 17 17 16 17 17 18 17 16 15 15 15 14 14 14 14 14 13 13 13 11 7 5 10 13 11 10 11 13 18 20 19 20 20 19 19 18 17 19 19 20 20
26 25 26 24 22 23 23 21 21 19 18 18 19 19 17 15 16 17 17 17 16 15 15 15 15 15 14 13 13 13 14 16 17 17 18 19 19 18 17 17 19 19 18 18 19 19 18 18 18 17 16 16 16 16 16 15 15 15 16 15 14 13 11 11 10 8 10 13 12 12 11 11 15 17 18 20 18 15 16 15 14 16 18 21 21
26 26 26 25 23 22 22 20 19 19 18 17 17 17 16 15 14 14 15 15 15 14 13 13 14 15 14 13 13 13 12 13 15 16 18 18 17 17 18 18 18 18 18 19 19 19 19 19 21 19 16 16 17 17 16 16 15 15 15 15 14 13 9 4 7 8 7 9 11 12 12 11 13 13 15 18 16 14 17 17 13 13 15 18 22
29 30 28 24 23 21 19 18 18 17 17 15 15 15 15 15 13 11 11 11 11 11 11 11 12 13 13 14 14 14 13 13 13 14 16 17 17 17 17 17 18 17 17 19 20 21 21 21 21 21 18 18 18 18 17 17 16 15 16 14 13 12 9 4 5 8 9 10 12 14 13 12 13 11 11 16 17 17 20 18 15 15 16 17 21
28 29 27 24 24 21 18 18 16 13 12 13 14 15 14 14 14 13 11 10 8 9 12 13 13 13 13 13 14 15 15 14 14 14 14 15 16 17 17 16 16 16 16 17 18 18 19 21 22 21 20 19 19 17 16 16 16 15 16 15 12 12 10 7 7 9 11 13 16 17 14 12 12 11 11 14 15 16 17 16 17 19 19 19 22
25 22 21 20 18 17 15 14 10 7 9 9 9 11 11 10 11 11 11 9 8 9 10 12 13 13 13 13 14 15 15 15 16 16 15 13 12 15 17 15 13 15 17 19 18 16 16 18 20 21 21 20 18 17 16 15 15 15 15 14 11 11 10 8 9 10 11 14 16 17 17 15 15 15 14 14 15 15 15 15 17 20 20 21 24
10 6 4 4 5 6 7 9 9 10 13 12 8 9 10 8 6 6 7 8 9 10 11 11 12 12 12 13 14 14 15 16 17 17 18 18 16 15 15 14 14 15 17 20 22 21 19 19 20 21 22 20 18 17 17 16 14 14 15 13 11 11 12 13 13 13 13 14 15 16 18 18 18 19 18 16 15 16 15 15 17 20 21 23 25
10 5 4 7 10 10 8 10 12 12 15 15 13 12 11 9 6 5 6 8 9 11 12 13 14 14 13 13 14 13 14 15 16 17 18 19 20 19 18 18 18 19 18 20 23 23 22 21 20 20 22 23 21 20 19 18 15 14 14 13 13 15 16 15 15 15 15 15 15 17 17 17 17 18 18 16 15 16 19 19 20 21 20 23 26
9 14 16 15 14 11 9 10 13 12 14 15 13 11 9 8 7 7 8 8 8 9 11 11 11 12 12 12 12 11 12 14 16 17 17 18 20 21 23 22 21 21 20 20 22 22 22 21 20 19 18 21 21 20 20 18 16 15 15 15 16 16 16 17 16 16 16 16 16 17 16 16 17 17 16 18 19 21 22 23 25 23 20 21 26
17 18 17 14 11 8 7 9 12 12 13 12 10 10 9 9 9 8 8 9 10 10 11 10 9 9 9 9 10 10 12 14 14 15 16 17 17 17 19 20 21 22 21 22 22 21 22 22 21 19 15 14 17 18 18 17 16 17 18 19 18 18 17 18 17 17 17 17 18 17 16 17 18 17 18 21 22 21 22 24 26 23 16 15 21
15 15 15 13 10 8 8 10 12 12 10 9 8 9 8 8 8 8 8 10 11 11 11 10 9 9 9 9 10 11 12 13 13 14 16 17 15 13 14 15 17 19 20 22 22 21 21 17 14 15 15 14 17 18 17 17 19 21 22 23 24 23 23 22 21 20 19 19 20 19 18 18 19 19 20 18 14 17 23 26 25 21 16 14 18
15 15 14 13 10 10 11 12 11 10 9 9 9 9 8 8 8 9 9 10 11 10 10 9 8 8 7 7 9 10 13 14 14 13 13 14 13 12 12 11 13 15 15 16 17 17 16 12 10 15 17 16 17 18 16 17 20 21 22 22 23 24 25 25 24 24 24 22 21 21 20 21 21 20 17 12 10 17 24 25 24 21 20 21 22
15 15 14 14 12 11 13 12 10 9 10 10 10 10 9 8 9 10 9 10 9 8 7 7 6 6 6 7 8 9 11 14 13 11 10 11 11 12 11 10 11 13 12 12 12 13 14 15 16 19 19 17 17 17 17 18 19 19 18 19 20 22 23 24 25 26 27 26 25 25 24 23 22 19 14 12 14 19 19 18 19 20 20 24 29
14 13 13 12 11 10 10 10 9 9 9 10 10 10 9 9 9 9 9 8 8 7 7 6 6 6 7 9 11 11 11 11 12 11 11 12 12 11 11 11 11 12 12 11 10 11 15 19 21 20 19 18 19 20 20 20 20 19 19 20 22 22 22 23 23 24 25 26 27 28 27 26 24 20 14 13 16 17 17 18 19 19 22 28 31
12 12 11 10 9 8 8 8 9 9 9 9 9 9 9 8 7 8 7 6 7 7 7 6 6 7 9 10 11 11 10 10 12 12 11 12 11 10 10 10 11 12 12 13 14 16 16 18 20 20 19 19 21 21 21 20 20 19 18 20 22 22 22 22 22 23 24 25 24 24 25 24 23 22 19 18 18 17 18 23 23 21 24 27 27
12 12 11 10 9 8 8 8 9 9 9 8 8 9 8 7 7 8 7 6 6 6 6 6 6 7 9 10 10 10 9 10 11 10 9 9 9 8 8 8 8 9 10 13 16 18 17 15 16 17 16 16 18 19 18 17 17 16 15 17 19 19 21 20 20 21 20 17 15 16 18 19 19 21 20 17 16 16 17 21 22 21 23 22 20
11 11 10 10 9 8 7 7 7 7 7 7 7 8 8 7 7 8 7 6 6 5 5 5 5 7 8 9 9 9 9 10 10 8 7 6 7 8 9 9 8 8 10 12 14 16 16 13 13 14 12 12 14 15 14 14 14 14 13 15 17 18 20 19 18 18 15 13 14 16 19 19 19 20 18 13 12 12 11 15 17 20 23 20 15
9 10 10 10 9 8 7 6 6 6 6 6 6 6 6 6 6 6 6 6 5 5 5 5 5 6 8 8 8 8 8 8 8 6 5 5 5 7 8 8 9 9 9 11 13 15 14 13 12 12 10 10 11 12 12 12 11 12 13 16 17 18 18 17 16 17 19 21 23 23 23 22 19 19 19 17 16 13 11 14 15 19 22 19 15
9 8 10 10 9 8 7 6 5 5 5 4 4 4 4 4 4 4 5 5 4 4 4 5 5 5 6 5 5 6 6 6 5 3 3 4 5 6 5 5 6 7 7 9 11 12 13 11 11 11 11 10 10 10 11 11 11 13 15 16 16 15 15 17 19 22 25 27 27 25 22 20 18 16 15 14 14 13 12 12 14 16 20 20 18
9 8 8 8 8 8 7 5 4 3 3 2 2 2 3 2 3 3 4 4 4 3 3 3 3 5 5 4 4 4 3 3 2 1 3 4 6 6 4 3 4 4 5 7 9 9 10 9 9 8 7 7 8 9 11 13 14 16 17 15 15 15 17 20 20 21 22 21 20 19 17 16 14 12 12 11 11 10 10 12 14 17 19 19 19
10 9 9 8 7 7 6 5 5 4 3 2 2 1 1 1 1 1 2 2 3 2 1 2 4 3 2 2 3 2 2 2 1 1 4 6 6 5 2 1 4 5 5 7 7 5 4 5 7 6 6 7 9 12 14 16 17 18 17 15 14 13 14 15 14 13 14 15 15 15 14 13 12 10 9 8 8 8 10 12 14 14 14 15 16
11 11 10 9 8 8 7 6 7 6 5 4 3 3 2 2 1 1 1 2 3 2 1 1 1 2 2 1 1 1 3 4 3 3 5 6 6 5 1 2 3 4 4 6 7 6 5 3 6 7 7 10 13 15 17 18 18 17 14 10 9 8 8 10 12 12 13 14 13 13 12 11 12 11 10 10 11 12 13 15 15 15 14 14 15
11 11 11 10 9 9 8 7 7 6 5 4 3 2 2 1 1 2 2 3 3 3 2 2 1 1 1 1 1 2 4 4 3 4 7 6 5 5 4 2 2 3 4 5 8 7 6 7 10 12 15 18 20 20 20 18 14 11 7 5 5 6 7 10 11 11 13 13 12 12 12 12 12 12 12 13 15 15 15 15 15 15 15 15 14
10 10 10 9 9 8 8 7 6 6 6 5 4 3 2 2 1 2 2 3 3 3 3 2 3 3 3 2 0 2 3 2 3 5 6 6 7 8 8 7 8 7 6 5 6 7 8 11 14 16 19 20 20 18 14 10 7 4 4 6 6 5 7 8 8 9 9 11 12 12 12 12 12 12 13 15 15 14 13 13 14 16 16 16 15
10 10 9 8 8 7 6 5 5 5 6 5 4 4 4 3 2 1 1 2 3 3 3 4 4 5 4 3 1 2 2 3 3 3 5 6 7 9 9 8 8 8 8 7 6 5 8 11 13 14 15 13 9 6 4 3 3 3 4 4 3 3 4 4 5 4 5 7 10 11 11 11 11 11 13 13 13 12 11 11 14 15 15 15 14
11 10 9 9 9 8 7 6 6 5 4 3 3 4 4 3 2 3 4 4 4 5 4 4 5 6 5 3 1 1 1 2 3 2 3 4 5 7 8 7 7 8 7 6 6 7 8 10 13 14 12 7 4 3 3 3 2 1 0 3 4 2 4 5 3 1 3 2 6 8 9 10 10 10 11 12 12 11 10 11 14 14 13 14 14
11 10 9 8 8 8 6 5 5 5 4 3 2 3 3 2 3 5 4 2 2 3 3 3 4 5 4 3 2 2 1 2 3 2 2 3 4 5 6 6 6 6 5 6 9 10 12 14 15 14 10 7 7 8 8 9 8 6 7 8 7 6 8 7 3 1 3 2 5 7 9 9 9 9 10 11 11 10 9 10 11 11 12 13 12
10 9 8 7 6 5 5 4 3 3 3 2 1 1 2 1 1 1 1 4 4 5 5 5 5 6 3 1 3 4 4 5 5 3 2 3 5 5 5 6 7 7 9 12 14 14 15 15 14 11 10 11 12 13 13 13 12 10 11 10 8 8 10 9 3 2 1 2 6 9 10 11 9 8 9 10 10 9 7 7 8 9 11 11 10
9 8 8 8 6 6 5 5 3 3 1 3 5 4 4 4 4 4 4 5 5 6 6 6 7 8 7 5 5 6 4 4 4 5 5 6 6 5 5 7 9 11 12 14 14 14 14 13 11 12 14 16 17 17 16 15 13 11 10 10 8 8 7 5 4 4 2 3 8 11 11 10 8 9 10 9 8 7 5 5 6 8 8 7 6
6 5 5 5 4 3 2 3 3 2 3 2 5 3 4 4 3 2 2 5 6 6 5 5 6 7 6 4 5 5 4 5 7 7 7 6 5 5 6 8 10 11 11 10 11 12 12 11 11 13 15 16 14 12 10 8 7 6 6 7 7 3 2 5 4 3 0 5 9 11 11 10 9 10 9 7 7 6 5 5 6 7 6 4 4
4 2 3 7 9 6 4 5 4 3 6 5 2 1 1 1 1 1 2 3 5 5 5 5 5 6 5 3 6 7 7 7 8 8 8 8 7 7 7 8 10 10 10 10 10 9 8 10 12 14 14 12 10 9 9 9 9 8 8 8 9 8 6 6 6 7 7 8 10 11 12 13 13 11 9 7 7 5 3 3 5 6 5 3 3
5 5 5 8 9 8 7 7 5 3 4 4 2 1 1 3 3 4 3 1 1 2 2 2 4 5 5 4 6 7 7 7 8 9 9 9 9 8 8 9 11 9 8 11 12 9 7 9 12 12 11 11 11 11 12 12 12 12 12 10 12 12 9 9 12 12 10 9 10 10 12 14 14 12 11 11 10 5 2 2 3 4 4 2 3
8 7 7 7 7 7 7 6 5 3 2 3 3 2 2 3 2 4 7 6 4 3 3 2 2 4 5 5 6 6 7 7 8 9 9 9 9 8 8 10 10 8 7 8 10 9 8 9 10 10 11 11 10 11 11 11 10 12 12 11 11 12 10 10 11 9 7 7 8 9 11 14 14 13 13 16 14 7 3 1 2 3 3 2 1
9 8 7 6 6 6 5 4 3 3 3 2 3 3 3 3 3 3 5 6 5 5 5 4 4 3 4 6 6 6 7 8 9 10 9 8 8 8 9 11 11 9 8 7 8 8 9 9 9 10 11 11 11 10 10 10 10 10 11 11 11 11 10 10 10 9 7 6 7 9 11 12 12 12 14 19 18 8 5 3 1 2 1 1 1
9 8 7 6 5 6 5 5 5 4 4 4 4 4 4 3 4 6 3 3 3 1 2 2 3 2 3 4 5 5 6 8 9 9 9 8 8 9 11 12 12 10 9 8 8 9 9 9 10 10 10 11 12 11 11 12 11 12 12 12 13 13 12 11 11 10 8 8 9 11 12 11 11 13 16 18 16 9 4 5 4 4 4 4 4
7 7 7 6 6 6 5 5 5 5 5 4 4 5 5 4 4 4 5 6 6 3 3 3 1 1 3 4 4 4 6 7 8 8 8 8 8 9 10 11 11 11 9 8 8 9 9 10 12 12 11 12 12 12 12 12 12 13 13 13 13 13 14 14 13 11 11 12 11 12 13 13 13 15 16 16 13 9 5 4 5 7 7 6 6
9 9 9 8 6 5 4 3 5 6 4 3 4 5 6 6 4 4 5 5 3 3 3 4 4 5 6 7 7 6 7 9 9 9 9 8 8 10 10 9 10 12 12 12 12 12 12 13 14 14 14 13 13 13 13 13 13 13 12 12 13 13 14 14 14 13 14 16 14 12 12 13 14 16 17 15 10 8 9 11 8 5 9 8 7
10 9 8 7 7 7 6 4 6 7 6 5 5 6 5 5 5 6 8 8 7 6 5 7 9 10 10 11 10 8 10 12 11 9 9 9 10 11 11 10 11 12 13 14 14 14 13 14 15 14 13 14 14 14 14 14 14 13 13 13 14 14 13 13 14 14 15 15 15 14 13 14 15 16 17 14 10 8 10 13 11 5 8 10 10
10 10 8 8 9 9 8 7 7 8 8 7 7 7 7 7 7 8 9 9 8 8 8 9 11 12 11 12 13 11 9 9 8 8 9 10 11 12 13 13 14 14 14 15 16 16 16 17 16 14 14 15 16 16 16 16 16 16 16 15 15 15 14 13 13 14 14 15 15 15 15 14 13 14 14 12 10 10 10 11 12 10 10 11 11
8 9 10 11 10 9 7 7 8 8 8 8 9 9 9 9 9 9 9 9 8 9 10 10 11 12 12 12 14 14 11 7 7 10 12 12 14 15 16 17 16 16 16 17 17 16 16 18 17 16 15 16 16 16 16 16 16 16 17 17 17 17 15 15 15 16 17 17 17 18 18 18 17 15 13 11 11 11 11 11 13 15 16 15 14
9 9 10 11 11 10 8 8 9 10 10 11 11 10 10 10 11 10 10 10 10 10 11 10 10 13 14 12 12 14 13 11 11 13 13 13 14 15 16 16 16 16 15 16 16 16 15 15 15 14 14 14 14 13 13 14 15 15 15 16 17 16 15 15 17 18 19 19 18 18 19 20 20 18 15 14 14 13 12 12 14 15 15 14 14
10 10 10 11 11 11 10 9 10 11 11 11 12 11 11 11 11 11 11 12 11 10 10 9 9 11 14 14 13 13 13 12 12 13 13 12 13 14 15 15 15 15 14 14 15 15 14 14 14 14 14 14 14 13 13 13 14 15 16 16 17 17 17 17 18 19 18 18 18 18 19 19 19 19 17 15 14 13 12 12 13 14 14 13 12
9 10 10 10 10 10 10 9 9 9 10 11 11 12 12 12 11 11 12 12 11 10 10 10 9 10 12 13 12 12 11 11 10 10 10 11 12 13 13 13 13 13 14 14 13 13 13 13 14 15 15 16 17 17 17 16 16 17 17 18 19 20 21 21 21 20 19 18 18 19 19 19 18 18 18 17 17 17 17 17 15 14 15 13 11
8 9 8 8 9 9 9 10 9 9 8 9 9 10 11 10 11 11 11 11 11 10 10 10 10 10 10 11 11 11 10 10 10 9 9 9 10 10 10 11 12 12 12 12 13 13 12 12 13 13 13 15 18 19 20 19 19 20 21 21 22 23 24 24 24 22 20 19 19 20 21 20 17 16 17 19 20 19 19 20 20 17 14 12 9
7 7 6 6 7 8 8 9 10 9 8 7 8 8 8 9 9 10 10 10 10 9 9 9 9 9 10 11 12 12 12 11 11 10 10 10 9 9 9 10 10 10 10 10 11 12 12 11 12 12 11 12 15 17 18 18 19 20 22 24 24 24 24 25 24 23 22 22 21 21 21 19 16 15 16 18 19 19 18 19 20 18 15 15 14
8 8 8 7 7 8 8 8 8 8 8 7 7 7 7 8 8 8 7 7 7 7 7 7 7 8 9 10 11 12 13 12 11 10 10 9 9 9 9 9 9 9 9 9 9 10 11 11 11 10 11 12 14 13 14 16 16 16 18 22 24 23 23 24 23 23 24 24 23 22 20 17 15 15 17 19 19 19 18 18 17 15 15 15 14
8 8 8 8 7 7 8 7 6 6 6 6 6 7 8 7 7 6 6 6 7 7 7 7 7 7 8 8 9 11 12 12 12 11 9 9 9 10 10 10 10 10 9 8 9 9 9 10 10 9 8 11 13 13 14 15 15 15 17 21 23 23 23 23 22 23 23 23 22 22 21 17 14 15 18 19 19 18 18 17 15 13 13 13 12
7 7 6 6 6 6 6 7 7 7 8 7 7 8 7 7 7 8 8 9 9 8 8 8 7 7 7 7 8 9 9 10 10 10 9 9 9 10 10 10 10 9 8 8 8 8 7 9 10 7 6 7 10 11 13 15 16 16 18 21 22 22 22 22 21 22 22 21 20 21 20 17 15 15 17 18 18 18 17 16 16 15 13 13 12
7 6 5 4 5 5 5 5 6 7 8 8 8 8 8 8 8 8 9 9 9 8 8 8 8 8 8 8 8 8 9 9 10 9 9 8 9 10 11 11 11 11 10 10 9 8 8 10 9 6 6 8 9 9 12 17 19 20 21 22 22 22 22 21 21 21 21 20 19 19 19 17 15 15 16 16 16 17 17 16 16 17 16 15 15
6 5 5 6 6 6 6 5 5 5 6 6 7 6 6 6 7 8 8 8 9 9 9 9 10 10 9 9 9 8 8 9 10 10 10 9 9 10 11 11 10 11 11 12 11 10 10 11 9 6 6 9 10 11 14 19 21 21 22 24 25 25 24 23 22 20 20 20 18 17 18 18 16 15 15 15 14 15 17 17 16 16 16 16 16
7 7 8 8 9 9 8 8 8 8 7 7 7 7 7 8 8 8 8 9 9 10 9 9 9 9 8 8 8 8 7 8 8 10 11 11 10 10 10 10 10 10 10 11 11 11 11 12 11 8 7 9 12 13 15 17 19 20 22 25 26 27 26 25 23 21 19 18 16 15 17 20 19 17 17 16 14 14 16 17 15 14 14 15 15
Wind_Direction
188 192 195 194 192 193 195 196 199 202 203 204 205 207 212 214 215 221 225 224 222 219 222 227 227 226 226 227 230 234 231 223 222 225 223 223 227 232 237 240 239 237 239 242 244 248 253 255 258 262 266 270 274 276 278 280 281 279 279 277 270 266 256 233 216 243 259 263 264 265 268 246 227 229 230 227 229 230 229 229 230 232 235 237 238
190 193 194 197 197 196 197 198 199 202 207 208 208 210 213 215 218 223 225 224 222 222 224 226 227 227 226 226 231 240 241 232 226 227 229 228 227 232 237 239 238 237 239 242 244 248 255 258 260 262 263 264 266 270 273 275 279 279 283 290 292 291 275 240 220 220 243 259 262 266 276 252 226 231 235 228 224 226 226 227 235 243 242 240 240
191 193 193 197 200 197 197 199 200 203 207 207 211 214 214 216 218 219 219 219 221 223 226 228 228 229 233 236 239 248 254 248 239 235 235 236 234 236 239 240 241 239 239 243 245 248 253 258 262 263 260 259 261 263 267 271 276 279 282 288 294 307 321 279 231 225 242 266 267 266 275 264 246 250 243 228 223 230 235 236 241 249 249 244 244
194 195 193 194 197 196 196 198 199 202 207 211 214 214 213 217 216 207 204 207 210 217 228 242 249 245 240 239 242 247 253 254 253 247 242 242 242 240 240 243 248 248 245 247 246 245 247 251 256 259 260 261 262 263 267 271 276 281 282 283 290 308 325 318 260 250 249 259 264 264 268 265 263 264 241 225 227 233 235 233 229 233 240 239 242
193 194 193 192 191 190 194 200 199 196 201 211 220 218 214 216 214 210 213 214 214 226 234 242 253 253 246 243 244 247 251 255 256 256 254 252 246 241 241 245 253 257 256 257 257 253 253 253 251 251 255 259 262 263 265 268 271 276 278 280 290 301 305 299 281 265 251 252 257 260 265 269 267 262 245 240 244 241 236 234 230 229 232 231 232
190 191 193 189 189 190 191 195 199 204 208 215 223 221 218 214 208 209 215 218 221 236 240 237 239 242 242 247 248 247 249 251 253 257 258 259 257 252 248 248 256 259 254 254 257 259 264 269 267 260 254 253 255 258 261 266 271 275 277 284 294 295 294 293 287 279 268 261 258 259 264 269 266 262 262 264 261 251 240 237 235 233 232 231 229
168 169 175 154 180 197 172 152 158 190 211 223 226 218 218 214 202 195 197 204 217 230 238 241 242 239 239 246 250 249 248 248 250 252 250 252 259 261 255 250 253 257 255 254 253 252 255 265 275 278 270 256 248 252 259 263 267 269 270 276 285 286 287 286 278 275 274 269 266 266 268 269 266 263 264 266 260 249 235 225 229 234 233 232 230
85 112 165 166 170 177 168 142 135 157 187 207 218 220 221 217 209 209 209 216 232 238 238 242 244 242 238 241 247 250 249 247 245 246 248 251 255 259 262 259 258 261 264 262 259 258 260 259 259 270 277 269 253 247 252 255 258 262 263 264 270 276 279 278 273 268 266 265 267 267 265 263 260 257 256 250 240 237 234 229 231 234 231 230 231
167 188 189 181 167 162 168 147 127 140 169 184 194 198 193 185 189 207 221 226 232 234 237 241 243 243 240 242 249 251 250 250 248 248 252 257 258 261 264 264 263 265 268 267 264 263 267 266 255 253 269 277 271 264 262 258 255 261 268 271 274 275 273 271 268 265 262 262 263 262 259 256 253 248 243 239 237 240 240 234 233 231 224 226 233
188 191 187 176 159 152 171 157 142 152 173 180 176 170 170 178 187 200 219 227 225 226 232 237 241 247 248 251 256 258 259 262 261 259 259 262 265 268 270 270 267 264 266 268 268 267 268 270 267 262 263 273 278 279 276 269 263 265 273 276 275 272 271 272 270 267 265 263 261 259 256 254 252 246 242 245 248 247 240 232 230 225 213 226 245
166 175 181 175 160 160 180 175 159 159 177 187 173 164 178 193 197 204 219 229 232 234 236 236 241 249 253 258 265 268 269 266 262 262 263 265 268 272 277 279 274 270 271 270 269 275 280 279 279 280 276 269 266 266 267 270 273 276 279 279 275 271 270 271 271 270 268 265 264 263 260 259 260 257 254 256 258 254 246 235 225 210 193 213 245
153 155 164 164 158 167 177 172 163 161 177 187 174 171 189 204 211 217 225 231 234 238 239 237 244 253 259 270 278 281 281 276 269 266 265 262 262 267 271 274 274 275 278 276 276 285 291 289 283 277 270 263 261 260 264 275 281 283 285 284 278 274 272 270 271 272 269 268 269 268 266 267 269 266 266 277 286 272 259 241 225 216 206 211 228
147 142 149 156 159 168 169 164 162 165 174 181 179 182 194 205 213 216 221 228 232 237 240 238 246 258 263 269 270 269 278 286 287 285 279 273 272 275 273 271 273 273 272 277 284 285 277 273 273 268 261 256 258 261 266 272 276 279 282 282 279 277 275 273 273 273 271 270 270 269 270 273 277 281 287 289 278 273 268 248 231 228 224 226 235
142 141 144 149 152 159 161 160 164 165 168 176 181 187 194 203 214 215 216 224 229 233 237 234 235 244 248 253 256 255 258 271 278 278 280 282 284 286 281 272 269 271 274 276 275 268 264 270 277 276 270 264 263 265 268 269 271 275 280 283 283 283 282 280 280 280 279 277 274 273 275 276 279 287 292 278 266 269 276 267 250 238 237 243 248
135 136 140 144 146 154 160 161 163 163 168 177 184 194 200 203 210 214 215 224 230 231 232 231 236 245 248 249 252 254 253 260 270 273 274 277 278 282 287 280 269 267 273 274 271 267 268 274 279 280 276 270 267 269 272 272 275 282 288 288 287 287 287 286 286 286 286 284 280 280 283 283 283 285 282 275 274 273 273 272 269 261 253 251 252
132 137 143 148 151 158 161 159 162 165 171 181 191 200 203 202 208 213 215 221 231 232 227 224 235 248 254 252 250 254 263 274 280 280 280 281 279 282 289 288 278 273 273 273 273 274 274 275 276 278 280 277 271 272 277 283 290 296 296 291 288 289 291 292 295 296 296 296 294 294 298 303 306 302 294 286 284 278 271 271 271 267 260 256 255
137 141 144 149 152 157 161 164 168 170 174 186 199 204 205 205 213 219 216 216 226 230 225 225 233 244 252 256 257 260 270 278 281 287 297 297 294 295 294 288 279 275 275 275 277 280 282 283 284 284 284 279 275 277 283 292 298 299 295 294 295 295 295 296 298 297 295 295 297 297 302 308 312 313 315 318 310 292 260 249 251 250 251 253 256
133 135 138 142 148 150 156 167 172 172 182 193 197 203 207 208 216 222 216 217 226 226 225 231 236 244 253 264 272 275 280 283 282 286 296 298 305 312 307 294 281 275 276 279 280 282 288 294 293 286 279 275 277 281 284 288 295 296 297 301 301 298 299 300 298 293 289 290 295 299 304 306 306 308 313 316 310 292 250 240 250 245 240 241 247
134 139 138 141 145 144 151 162 165 171 187 190 187 199 211 214 221 222 219 229 240 232 234 246 260 273 275 274 280 284 284 284 283 283 288 300 316 318 310 299 289 281 283 286 282 282 288 292 286 273 266 269 276 281 284 290 298 302 305 306 302 295 292 290 291 294 297 300 305 311 316 317 316 315 313 309 303 289 271 273 275 251 238 242 247
131 133 131 133 137 138 145 153 153 164 175 165 168 188 200 217 239 241 242 259 267 252 234 228 246 284 295 296 303 298 273 248 247 295 306 312 318 315 316 332 322 313 314 307 295 288 283 278 278 271 259 263 276 285 293 300 306 312 315 311 299 291 291 294 298 304 309 313 319 325 330 329 325 321 316 314 312 303 299 301 286 259 248 251 252
126 127 124 126 132 135 139 138 131 131 131 129 139 143 140 183 252 263 282 307 301 271 234 191 192 212 250 290 324 320 228 212 222 307 306 315 329 337 357 344 318 327 339 325 316 318 293 257 257 257 247 262 280 291 301 309 314 316 315 308 299 299 306 315 324 330 330 330 331 331 332 332 333 337 338 343 350 343 335 329 312 291 283 285 284
128 131 127 128 131 131 129 126 122 122 121 121 125 114 96 86 65 23 333 335 322 308 345 10 162 154 170 214 285 246 241 263 295 323 326 329 337 338 326 204 273 308 330 324 323 344 353 290 259 257 268 287 297 302 308 312 313 312 310 310 318 329 335 340 345 341 330 326 328 332 339 346 353 3 8 6 358 342 331 331 330 328 325 320 316
129 130 129 131 132 130 130 126 120 123 123 116 112 104 93 82 41 11 349 346 340 344 12 18 18 24 246 232 203 214 238 266 314 344 347 352 0 359 5 36 355 319 303 293 287 292 303 291 278 280 288 293 296 299 301 303 303 305 321 5 19 9 5 2 354 341 331 332 339 346 354 360 3 5 2 353 344 335 333 334 332 330 328 323 320
128 125 125 129 128 129 136 137 133 137 136 130 134 133 121 110 72 22 351 347 343 337 339 325 305 304 294 287 244 203 222 264 326 355 9 28 46 43 39 40 31 18 2 330 289 265 269 275 277 284 290 291 293 296 299 303 311 328 30 62 61 37 19 4 341 329 335 346 352 355 355 355 354 351 347 345 343 340 341 341 335 330 327 324 323
135 131 130 134 135 138 145 143 132 133 135 142 154 151 145 149 152 170 242 259 257 260 267 271 274 273 264 252 233 209 223 254 282 335 28 48 53 46 38 32 24 17 10 358 335 298 283 283 288 295 297 296 300 306 311 326 351 24 58 86 91 50 6 315 303 336 2 354 350 350 345 342 342 341 340 342 343 343 343 342 340 338 334 332 333
142 144 148 148 143 141 144 140 129 130 142 152 157 162 166 168 176 212 232 239 245 248 251 267 282 281 274 270 246 222 254 261 247 272 9 25 29 25 23 21 13 4 356 343 325 310 300 297 300 303 303 300 297 299 300 292 289 337 223 209 210 249 270 252 250 63 75 18 345 339 330 327 333 340 344 344 341 340 342 341 340 340 337 334 335
150 156 155 147 139 141 147 146 141 151 174 194 201 197 195 192 214 235 253 299 331 303 290 300 305 295 279 270 275 284 3 85 116 119 63 14 360 9 15 14 7 353 331 306 297 296 294 294 294 293 289 279 270 271 267 252 246 262 265 243 236 255 257 245 238 114 115 84 16 348 324 313 317 333 345 346 339 333 333 336 339 341 342 339 337
152 152 144 135 139 152 156 156 169 181 175 161 135 139 133 107 131 189 19 26 13 344 345 5 4 350 342 338 332 347 56 87 86 74 40 338 335 345 345 341 338 325 311 305 304 303 300 296 289 280 270 265 262 261 258 250 248 258 258 246 246 262 256 243 217 162 165 38 18 357 327 304 302 323 333 331 329 325 329 341 346 346 348 351 350
154 149 147 149 161 174 163 156 191 244 226 120 114 91 67 64 78 79 40 14 358 340 342 357 0 357 7 24 12 12 42 53 15 357 345 332 328 323 321 330 332 326 321 317 313 311 309 301 288 275 265 259 254 252 252 250 245 246 251 252 254 256 250 229 173 165 202 340 359 352 329 306 305 321 322 323 331 334 339 351 356 356 0 6 6
146 145 143 129 126 158 165 137 156 284 340 93 131 97 43 51 81 88 1 354 355 345 340 343 347 357 15 20 360 355 355 345 341 342 337 330 322 317 323 332 330 329 333 330 318 314 311 304 293 282 271 266 265 268 273 273 263 266 293 304 298 296 80 90 103 133 309 349 356 353 339 324 318 315 311 316 331 336 339 348 354 1 9 14 15
115 96 56 44 51 56 45 54 71 21 1 23 91 123 85 105 120 310 328 355 1 359 6 10 4 15 31 4 336 342 347 343 339 338 332 324 318 319 326 330 332 339 350 348 337 327 314 302 297 293 290 294 307 321 333 339 339 343 345 338 339 358 31 43 23 7 359 1 3 356 339 322 313 310 309 308 307 304 318 347 354 359 358 1 23
88 69 51 41 46 55 51 44 51 38 2 5 13 350 217 204 207 222 232 240 16 5 9 14 8 14 19 354 334 339 345 341 331 325 323 321 320 323 327 330 336 343 350 349 347 342 321 304 303 312 327 336 342 352 360 359 359 3 3 357 354 353 348 347 354 358 2 5 358 340 322 314 312 315 317 308 294 275 270 330 357 12 2 4 50
71 63 56 46 42 47 49 42 43 48 24 348 334 323 286 268 242 218 219 219 215 224 243 278 331 355 358 348 337 335 336 332 323 317 317 318 318 319 322 327 333 335 331 334 337 332 322 316 320 335 348 344 342 356 6 4 0 358 355 353 353 348 343 346 350 350 355 356 341 319 308 311 315 320 319 308 295 265 214 245 11 45 23 358 40
69 67 64 54 46 46 49 45 44 46 35 5 345 329 315 325 335 287 236 220 219 235 252 264 274 309 341 342 338 340 338 333 325 320 319 320 318 317 320 324 324 318 308 306 313 317 318 322 332 344 346 339 339 347 349 347 348 346 341 340 341 338 341 349 347 343 343 339 320 306 304 309 313 311 304 302 299 277 199 167 92 97 97 286 240
73 74 69 60 57 55 45 39 41 37 24 12 358 339 333 337 325 315 333 83 120 197 264 250 246 282 334 334 336 350 351 343 337 332 331 330 324 320 324 328 324 316 308 302 299 300 302 309 324 337 338 333 335 338 335 334 337 336 334 334 333 331 335 338 333 327 327 320 307 302 300 298 299 296 290 292 300 295 224 194 188 180 191 215 208
66 72 67 56 54 54 44 32 32 28 15 4 354 341 339 343 335 341 28 73 101 115 103 112 137 15 10 1 360 7 2 353 348 341 336 336 332 328 331 332 328 327 332 331 317 310 313 325 339 347 345 338 335 335 334 333 333 333 333 334 335 335 335 331 320 309 304 303 300 300 299 291 285 286 284 284 296 311 307 270 232 203 197 204 205
38 48 55 50 40 38 41 38 25 18 14 6 357 352 348 348 355 25 41 45 58 86 90 76 59 47 34 20 11 0 349 347 347 345 346 349 349 347 345 339 332 335 341 346 348 347 350 357 3 5 3 357 355 356 356 351 346 342 339 340 343 340 333 330 329 325 314 301 292 292 298 295 289 288 287 287 297 326 337 328 310 233 200 210 218
49 47 51 47 33 22 23 31 21 11 11 11 1 356 358 356 6 34 44 40 43 59 66 56 52 48 31 15 7 353 338 340 345 353 1 3 358 353 349 345 345 347 348 352 0 6 7 8 10 11 12 12 13 15 15 10 3 358 353 349 348 343 336 333 337 340 331 312 296 289 288 289 291 294 296 301 319 334 327 321 316 274 220 226 227
59 53 48 44 38 24 15 21 22 11 8 15 16 15 18 16 18 40 58 62 63 67 68 62 55 45 28 16 14 4 348 346 359 13 19 18 16 16 15 13 12 13 13 13 17 21 22 21 21 23 24 23 22 21 18 15 12 10 7 5 1 358 355 352 350 349 346 336 324 316 311 307 306 304 301 308 321 324 315 315 319 314 296 275 256
49 48 39 34 31 19 7 16 25 17 14 23 29 28 28 27 28 41 57 64 66 69 73 71 58 42 28 18 15 12 7 12 27 31 31 30 28 29 31 27 24 24 25 24 22 23 25 27 29 31 29 25 22 19 15 12 12 12 11 10 12 12 10 7 0 353 348 343 339 335 332 333 333 326 317 318 329 334 331 323 313 304 296 286 281
46 44 35 28 25 18 14 20 28 29 31 35 35 31 31 35 38 44 49 52 56 63 69 73 63 43 27 17 17 21 25 32 35 33 32 32 29 29 32 29 24 23 24 22 20 20 22 25 29 31 29 24 21 17 13 11 13 13 10 9 9 10 8 4 358 352 347 344 343 340 336 335 336 333 322 315 316 317 313 303 298 296 292 287 290
47 43 34 29 28 28 27 27 33 40 42 41 39 34 34 40 45 47 48 46 44 47 52 56 53 40 29 23 24 29 34 39 38 33 32 33 31 31 32 28 23 22 23 22 20 20 21 23 27 29 30 29 29 28 26 25 23 19 16 15 14 12 10 6 2 359 356 350 345 342 337 333 332 333 331 325 321 318 310 300 295 296 299 298 301
51 48 42 38 36 34 28 25 33 44 47 47 45 40 38 40 42 43 46 45 38 34 35 36 34 33 32 30 29 29 34 40 40 37 37 38 34 31 29 26 22 23 24 24 24 24 25 27 31 32 33 36 40 42 41 40 39 33 27 25 22 18 15 11 6 4 2 356 346 341 340 336 331 330 331 330 327 328 329 326 315 300 293 290 286
59 55 48 42 39 38 33 29 30 37 46 55 56 50 45 43 41 40 44 44 37 33 32 30 27 25 26 27 26 27 31 37 39 40 42 43 41 39 35 29 27 26 25 24 24 25 28 31 32 33 35 36 37 37 38 39 39 36 33 30 26 21 17 14 9 6 4 359 348 341 342 342 337 332 328 326 324 322 322 325 325 323 323 326 322
58 56 50 44 39 36 33 29 26 25 30 40 48 47 47 47 44 42 41 37 33 30 29 26 24 24 23 22 22 22 24 26 29 33 37 38 39 41 35 28 27 25 25 25 24 22 25 28 27 28 30 21 12 16 26 31 30 28 25 24 21 18 14 10 7 7 7 2 353 346 344 343 339 335 331 329 330 328 321 317 319 323 329 335 336
45 42 44 47 45 39 33 30 28 25 25 28 32 36 39 41 44 49 50 42 33 28 25 24 22 20 19 17 15 14 13 10 11 19 27 29 28 24 20 19 19 15 15 23 24 20 19 16 12 17 24 13 2 12 34 39 34 26 19 15 14 13 9 4 2 4 5 2 357 353 350 344 338 338 337 333 332 330 323 317 315 314 315 316 317
47 43 42 41 43 45 40 34 29 26 26 28 32 33 31 27 28 36 43 39 30 20 17 18 18 15 14 14 11 8 4 359 357 2 11 16 15 11 9 12 12 7 8 16 21 20 17 8 360 8 25 22 21 33 42 38 32 27 18 12 11 10 5 360 358 358 358 356 355 355 354 348 339 338 339 337 334 331 325 318 314 312 311 312 311
49 51 47 39 42 46 39 28 20 15 13 17 30 36 28 15 14 20 20 14 11 11 11 11 9 8 10 12 11 6 359 354 352 354 2 10 11 9 9 10 8 4 4 9 11 15 18 8 3 14 37 32 30 36 29 19 17 18 12 9 10 7 1 357 357 355 351 348 348 349 349 344 335 332 336 338 337 335 331 325 321 319 319 320 319
53 56 53 50 58 62 53 40 32 21 11 9 21 31 24 10 12 23 21 9 5 10 11 6 5 8 14 17 16 11 4 359 355 353 360 11 16 12 9 9 7 2 360 0 4 11 13 7 9 35 57 39 32 29 16 8 9 9 5 3 2 360 356 355 354 351 347 344 342 342 343 340 331 329 335 339 339 338 338 335 330 328 326 322 318
60 53 42 36 39 45 48 44 41 40 28 13 13 26 30 20 18 24 21 9 5 12 15 10 7 9 11 8 6 7 7 4 358 355 358 8 16 11 6 5 5 1 356 357 3 7 6 5 13 41 46 23 14 12 8 4 3 1 360 358 355 352 351 351 350 348 346 342 336 336 341 341 333 327 331 335 337 338 339 337 334 333 330 323 317
53 50 47 38 33 35 34 28 26 31 29 15 9 20 31 29 24 22 17 10 7 11 13 7 2 4 8 4 359 2 8 6 359 355 357 4 10 7 358 352 351 352 353 357 0 0 359 359 5 14 16 5 360 359 0 360 357 355 356 355 351 348 348 349 347 347 346 341 336 339 345 342 335 329 329 330 332 336 336 332 330 331 330 325 320
Height
783 785 786 788 790 790 792 794 796 798 799 800 801 802 804 805 805 806 807 808 810 811 812 812 813 815 816 816 817 817 818 819 820 821 822 823 824 825 826 826 827 828 828 829 829 829 829 829 829 829 829 829 829 829 828 828 827 827 827 826 826 826 826 826 827 827 828 829 830 830 830 830 829 829 830 830 830 830 831 832 833 833 833 834 835
782 783 784 786 788 788 790 792 794 796 798 799 799 801 803 804 805 805 806 807 809 810 811 811 813 814 815 815 816 816 817 817 818 820 820 821 822 823 825 825 826 826 827 827 828 828 828 828 828 828 828 828 828 828 828 827 827 826 826 825 825 825 824 824 824 824 826 826 827 828 828 828 828 828 828 828 828 830 832 833 834 834 834 834 834
778 780 781 784 785 787 789 791 793 796 797 798 799 800 802 803 804 805 806 807 808 810 811 812 813 813 813 815 815 816 816 816 817 818 819 820 821 822 823 824 824 825 825 826 826 827 827 827 827 827 827 827 827 827 827 827 826 825 825 825 825 824 824 823 823 823 824 824 825 826 826 827 827 826 827 827 827 830 831 831 833 837 837 836 835
774 775 778 781 783 785 788 790 793 796 797 798 799 800 801 802 803 804 805 807 808 810 811 812 813 814 814 814 814 815 815 816 816 817 818 819 820 820 821 822 822 823 824 824 825 825 825 825 825 826 826 825 825 825 825 825 825 825 824 824 824 823 823 823 823 823 823 822 822 823 824 824 824 824 824 824 825 826 827 827 829 832 834 836 835
770 772 775 779 781 783 786 789 792 796 798 800 800 800 801 801 801 803 805 806 808 809 810 812 813 814 814 814 814 814 815 815 816 816 817 818 818 818 819 819 820 821 822 823 823 823 824 824 824 824 824 824 824 824 824 824 824 824 824 823 823 823 822 822 822 822 821 821 821 821 822 823 822 822 822 822 822 824 825 826 825 826 828 832 833
769 773 777 779 782 784 787 790 794 798 800 800 801 801 800 800 800 802 804 806 807 808 809 810 811 811 812 812 813 813 814 814 814 815 816 817 816 816 817 818 818 819 820 820 820 821 821 822 823 823 822 822 822 822 822 822 822 822 822 822 822 822 822 821 821 821 820 820 819 819 820 820 820 820 820 820 820 820 822 822 822 823 825 827 829
775 781 783 784 786 788 790 793 795 797 797 797 798 799 799 799 800 802 804 805 805 806 808 808 808 809 809 810 811 812 812 813 813 814 815 815 815 815 816 816 817 817 818 818 818 818 818 818 820 822 822 821 819 820 820 820 820 820 820 820 820 820 820 820 820 819 818 818 817 817 816 816 816 817 817 818 818 818 819 821 821 821 822 823 825
782 784 782 780 782 784 786 789 791 793 793 794 796 797 797 799 801 803 804 804 804 805 806 807 807 807 808 808 809 810 810 811 811 812 813 813 814 814 814 815 815 815 816 816 816 816 816 816 817 820 822 822 819 817 818 818 818 818 818 818 818 818 818 818 817 817 816 816 815 814 814 813 813 814 814 815 815 815 816 817 817 818 819 821 821
779 777 774 776 780 781 784 786 789 792 794 795 796 797 797 799 801 802 803 802 803 804 804 805 806 806 806 807 808 809 809 809 810 811 811 811 812 813 813 813 813 813 814 814 814 814 815 815 816 817 820 822 820 818 818 817 817 817 817 817 817 817 817 816 816 815 815 814 813 812 812 811 810 811 811 811 811 811 812 813 813 813 815 817 816
772 773 774 777 780 781 784 786 788 791 793 795 796 796 797 798 799 800 801 801 802 802 803 804 804 805 806 806 807 808 808 809 809 810 810 810 811 811 811 811 811 812 812 812 813 813 813 814 815 815 816 818 820 820 819 818 817 816 816 816 816 816 815 815 814 814 813 811 810 810 809 807 807 807 807 807 808 809 809 808 808 809 812 814 813
773 775 776 778 780 781 784 786 787 789 791 792 794 794 795 796 797 798 799 800 801 801 802 803 803 804 805 806 807 808 808 808 808 808 808 808 809 810 810 810 810 810 811 811 812 812 813 813 814 815 815 816 817 817 816 816 815 814 814 814 814 814 813 813 812 811 811 809 808 807 806 804 804 804 804 805 808 809 807 804 804 804 808 811 809
774 776 776 779 781 781 783 785 786 788 789 790 791 792 794 794 795 796 797 798 800 800 801 802 803 804 805 806 807 807 806 806 805 806 806 807 808 808 808 809 809 809 809 810 811 813 814 815 814 813 813 814 815 813 812 813 813 812 812 812 811 811 811 810 809 809 808 806 805 804 803 802 801 802 803 805 807 808 805 802 801 800 801 803 802
773 775 777 779 780 781 783 784 786 787 788 789 790 791 792 793 794 795 796 797 799 799 800 801 802 804 805 805 805 803 804 805 806 806 806 806 807 807 807 808 808 807 808 808 809 811 813 812 810 808 808 809 810 810 809 810 810 810 809 809 808 808 807 806 806 805 804 804 803 801 800 800 800 800 802 803 803 802 801 801 801 800 799 796 794
774 776 778 780 781 782 783 784 786 787 788 789 790 791 792 793 793 794 795 797 798 799 800 801 802 803 803 803 802 800 800 803 805 805 805 806 806 806 806 806 806 806 806 807 807 808 808 807 805 804 805 806 806 806 806 807 807 807 806 805 805 805 804 803 802 801 801 801 800 799 798 799 799 800 801 799 797 796 797 797 797 798 797 793 789
774 776 778 780 781 783 783 785 786 787 788 789 790 790 791 792 793 794 795 796 797 798 798 799 800 801 800 800 800 799 799 800 802 804 804 805 805 805 805 804 804 804 804 804 804 804 805 804 803 802 803 803 804 804 804 804 804 803 802 802 803 804 802 801 800 799 799 799 798 797 795 796 796 797 797 796 794 794 794 792 791 793 793 791 789
774 776 778 779 781 782 783 785 786 787 788 789 789 790 790 791 792 793 794 795 796 797 797 798 799 799 799 798 799 799 799 799 800 802 803 803 804 803 803 802 802 803 802 801 801 801 802 802 802 802 802 802 802 802 802 802 801 800 800 801 802 801 800 799 798 798 797 796 795 795 793 793 793 792 792 793 793 793 792 791 790 790 789 788 787
774 777 778 780 781 782 784 785 786 787 788 788 789 789 790 791 792 793 794 795 796 796 796 797 798 797 797 797 798 798 799 799 800 801 802 802 803 802 802 801 801 801 800 800 799 797 798 800 801 802 802 801 801 801 801 800 799 799 800 800 800 799 797 797 797 796 795 793 793 792 791 790 790 790 789 790 790 790 791 790 789 788 786 785 784
776 778 779 781 782 783 784 785 786 787 788 788 789 789 790 791 792 792 794 794 795 796 796 796 796 796 796 796 796 797 798 798 799 800 801 802 802 801 801 800 800 800 799 799 798 795 795 797 798 800 800 800 800 800 800 800 800 800 799 799 797 796 795 795 794 793 792 790 789 789 788 788 787 787 787 787 787 787 787 787 787 785 783 781 780
776 778 779 781 782 783 784 785 786 787 788 788 789 789 789 791 791 792 793 794 794 795 796 795 795 794 794 795 795 796 797 798 799 800 800 801 801 801 800 799 800 800 799 799 798 796 795 796 796 797 798 798 799 799 799 800 799 799 798 796 795 794 793 793 792 790 788 787 786 785 785 784 784 784 784 784 783 783 783 783 782 781 779 778 777
776 778 779 780 782 783 784 785 786 787 788 788 789 789 789 790 791 792 792 793 794 795 796 796 795 793 793 793 794 795 797 797 798 799 800 800 800 800 800 799 800 799 799 799 798 797 797 796 796 796 797 797 798 798 798 798 797 796 795 794 793 792 791 790 789 788 786 784 783 783 782 782 782 782 782 781 780 780 780 780 779 778 776 775 775
776 778 779 780 782 783 784 785 786 786 787 788 788 789 790 790 791 791 792 792 793 794 795 796 796 795 795 794 795 796 796 797 798 798 799 799 799 799 799 799 799 798 798 798 798 797 797 796 796 796 796 796 797 796 796 795 794 793 792 792 791 790 789 788 787 786 785 783 783 782 782 782 781 781 781 780 779 779 778 778 777 777 777 776 775
777 778 779 780 781 782 783 785 785 786 787 788 788 789 790 790 791 791 792 792 792 793 794 795 796 796 796 796 796 796 796 796 797 798 798 798 797 798 798 798 798 798 798 798 797 797 797 796 795 795 795 795 795 794 793 793 792 791 790 790 789 789 788 787 786 785 784 783 783 782 782 781 781 780 780 779 779 778 777 777 776 776 776 775 774
777 778 779 781 781 782 784 785 785 786 787 788 789 789 790 790 791 791 791 792 792 793 793 794 795 796 796 796 797 796 796 796 797 797 797 796 796 796 797 797 797 797 797 797 796 796 796 795 794 794 793 793 792 791 791 790 790 789 789 788 788 787 787 786 785 784 784 783 783 782 781 781 780 780 779 779 778 778 777 776 775 774 774 773 772
777 778 780 781 782 784 784 785 786 786 787 788 789 789 790 790 790 791 791 792 792 792 793 793 794 795 795 796 796 796 796 795 796 796 796 796 795 795 796 796 796 796 796 795 795 795 795 794 793 792 791 790 789 788 788 788 787 787 786 786 786 785 785 784 784 783 783 783 783 782 782 781 781 780 779 779 778 777 776 776 775 774 773 772 771
778 779 780 782 783 784 784 785 786 787 787 788 788 788 789 789 790 791 791 791 791 791 791 792 793 793 794 794 795 795 795 795 795 795 796 796 795 795 795 795 795 795 795 794 794 794 793 792 791 790 789 788 787 786 785 785 785 784 784 784 783 783 782 782 782 782 781 782 782 782 782 781 781 780 780 779 778 777 776 775 775 773 772 771 770
779 779 780 781 781 782 783 784 786 787 787 788 787 787 788 788 789 790 790 790 791 791 791 791 792 792 793 793 794 795 794 794 794 795 795 796 795 795 795 795 795 795 794 794 793 792 792 791 790 789 788 787 786 785 784 783 783 783 782 782 781 780 780 780 780 779 778 779 780 781 780 780 780 779 779 778 777 776 776 775 774 773 772 770 769
780 780 781 782 783 783 783 784 785 786 787 787 787 787 787 788 789 789 790 790 790 790 790 791 791 791 792 792 793 794 794 794 794 794 795 795 795 795 795 794 795 794 794 793 793 791 791 790 788 787 786 785 784 783 782 782 782 781 780 780 779 778 777 777 778 778 778 778 778 778 779 779 778 778 778 777 777 776 775 774 774 773 772 770 769
781 782 783 784 784 785 785 786 786 787 788 788 787 787 788 788 790 790 790 791 790 790 790 790 791 791 791 792 792 793 793 793 793 794 794 795 795 795 795 795 795 794 793 793 791 790 789 788 786 786 785 783 782 781 780 780 780 779 778 778 777 776 776 776 778 779 780 779 777 776 777 778 777 777 776 776 775 774 774 774 773 772 771 770 769
782 782 783 784 785 786 786 787 787 788 788 788 788 788 789 789 790 790 791 791 791 791 791 791 792 792 792 792 792 792 793 793 793 793 793 793 794 794 794 794 794 793 792 791 789 788 787 786 785 785 783 782 780 779 778 778 778 778 778 778 777 777 777 778 778 779 780 779 777 776 776 777 776 776 775 774 774 773 773 772 771 771 770 769 768
783 783 783 784 786 786 785 786 788 788 789 789 789 790 790 790 791 791 791 791 792 792 792 792 792 792 792 792 792 792 793 793 793 793 793 792 793 793 793 793 792 791 791 790 788 787 786 785 785 783 782 780 779 778 777 777 777 777 777 778 778 778 778 779 779 779 779 778 776 775 776 776 776 775 774 773 773 772 771 771 770 769 769 768 768
785 785 785 786 787 787 787 788 788 789 790 791 791 791 792 792 792 792 792 792 792 793 793 792 792 792 792 792 792 793 793 793 793 793 792 792 792 792 792 791 790 790 789 788 787 786 786 785 784 782 781 779 778 777 777 777 777 777 777 777 778 778 778 778 778 777 777 776 775 775 776 776 775 774 773 772 771 770 770 769 769 769 768 768 767
787 787 788 789 789 789 790 790 790 791 792 792 792 793 793 794 793 793 793 793 793 793 793 793 792 792 793 793 792 793 793 793 793 792 792 792 792 791 791 790 789 789 788 787 786 785 785 785 783 781 780 780 778 778 778 778 777 778 778 778 778 778 777 777 776 776 776 775 775 775 775 775 774 773 772 771 770 769 769 768 768 767 767 767 767
789 789 790 791 791 791 791 792 792 792 792 792 793 793 794 794 794 794 794 793 793 793 793 793 793 793 793 793 793 793 793 793 792 792 791 791 791 791 790 790 789 788 788 787 786 786 785 784 783 782 781 781 780 779 779 779 779 779 778 778 778 777 777 776 776 775 775 775 775 775 774 774 773 772 771 770 768 768 767 767 767 766 767 767 766
791 791 792 792 793 793 793 793 793 792 793 793 793 793 794 794 794 794 794 793 793 793 793 794 794 794 794 794 793 793 793 792 792 791 791 790 790 790 790 790 789 788 787 787 786 786 785 784 783 782 782 781 781 780 780 779 779 779 778 778 777 777 777 776 775 775 775 774 774 774 773 773 772 771 770 768 767 766 766 765 765 765 765 765 765
792 793 793 794 794 794 794 794 793 793 793 793 793 793 793 793 793 794 793 793 794 794 794 794 794 794 794 794 793 793 793 792 792 791 791 790 790 790 789 789 788 787 786 786 786 785 785 784 783 783 782 782 781 781 780 780 779 779 778 778 777 776 776 775 775 775 774 774 773 772 772 771 771 770 769 767 766 765 764 764 763 763 762 763 763
793 794 795 795 795 795 795 795 794 793 793 793 794 794 793 793 793 793 793 793 793 794 794 794 794 794 794 794 794 793 793 793 792 791 791 790 790 790 789 789 789 788 787 786 786 785 785 784 783 782 782 782 781 781 780 780 780 779 779 778 777 776 776 775 775 774 774 773 772 772 771 770 769 769 768 766 765 764 763 763 762 761 761 761 761
795 795 795 796 796 796 796 796 795 794 794 793 794 794 793 793 793 792 792 793 793 793 794 794 794 795 794 794 794 794 793 793 792 791 791 790 790 790 790 790 789 788 788 787 786 785 785 784 783 782 782 781 781 780 780 780 779 779 778 778 777 777 776 775 775 774 773 772 771 771 770 769 768 767 766 765 764 762 762 762 761 760 760 760 760
796 796 797 797 797 797 797 796 796 795 794 794 794 794 794 793 793 792 792 793 793 794 794 794 795 795 795 795 794 794 793 793 792 792 791 791 790 790 790 790 790 789 788 788 787 786 785 784 783 783 782 782 781 781 780 779 779 778 777 777 777 776 775 775 774 773 772 772 771 770 769 768 767 766 765 764 762 761 761 761 760 760 759 759 758
797 798 799 799 798 798 798 797 797 796 796 795 795 795 794 794 794 794 794 794 794 794 795 795 796 797 796 796 795 794 793 793 792 792 792 791 791 791 791 790 790 790 789 789 788 787 786 785 784 783 783 782 782 781 781 780 779 778 778 777 777 776 775 774 773 772 772 771 770 769 768 767 765 764 764 762 761 760 760 760 760 759 759 758 757
798 799 799 799 799 799 799 798 798 798 797 796 796 796 796 795 795 795 795 795 795 795 796 797 798 798 798 797 796 794 794 793 793 793 793 792 792 792 791 791 791 791 790 790 789 788 787 786 785 785 784 784 783 782 782 780 779 779 778 778 777 776 775 774 774 772 771 770 769 768 767 765 764 763 762 761 760 760 759 759 759 758 758 756 755
798 800 800 800 800 800 799 799 799 799 798 798 798 798 797 797 796 796 796 796 796 797 797 798 799 799 799 798 797 796 795 794 794 794 794 794 794 793 793 793 793 793 792 791 791 790 789 788 787 786 785 785 784 783 782 781 780 780 779 778 777 776 775 775 773 772 771 770 768 767 766 765 764 762 761 760 759 759 758 758 757 757 756 754 753
800 801 801 801 802 802 801 801 801 801 801 801 800 799 799 798 798 798 798 798 798 798 798 799 800 800 799 799 798 797 796 796 796 796 796 796 796 795 795 795 795 794 794 793 792 791 790 789 788 787 786 785 785 784 783 782 781 780 780 779 777 777 776 775 773 772 771 769 768 767 766 765 763 762 760 759 758 757 757 756 755 754 754 753 752
801 802 803 803 804 804 804 804 803 803 802 802 801 801 801 800 800 800 800 800 800 800 800 800 801 801 801 800 800 799 798 798 798 798 798 798 798 797 797 797 796 795 795 794 793 793 792 790 789 788 787 787 786 785 784 783 782 781 780 779 778 778 776 775 774 772 770 769 768 767 765 764 763 762 760 759 758 756 756 755 754 753 752 751 750
803 803 804 805 806 806 806 805 805 804 804 803 803 803 802 802 802 802 801 802 802 802 802 802 802 802 802 801 801 800 800 799 799 799 799 799 798 798 798 798 797 797 796 796 795 794 793 792 791 790 789 788 787 786 785 784 783 782 782 780 780 779 777 776 775 773 771 770 768 767 765 764 763 761 760 758 757 756 755 755 754 752 751 749 748
804 804 805 806 807 807 807 807 806 806 805 804 804 803 803 803 803 803 803 804 803 803 803 803 803 803 803 802 802 802 801 801 800 800 800 800 799 799 799 799 798 798 797 797 796 795 794 794 793 792 791 790 789 788 787 786 785 784 783 782 781 780 779 778 776 774 772 771 769 767 765 763 762 761 760 758 758 757 755 754 753 752 750 749 748
805 806 806 807 808 809 809 809 808 807 806 806 805 804 804 804 804 804 804 804 804 804 804 804 804 804 804 803 803 803 802 802 801 801 800 801 800 800 800 799 799 799 798 797 797 796 796 795 794 793 793 792 791 790 789 788 787 786 785 784 783 782 780 779 777 775 773 771 769 767 765 763 762 761 760 758 757 756 754 753 752 751 750 749 748
807 808 809 809 810 810 810 810 809 808 808 807 806 806 806 805 805 805 805 804 804 804 804 804 804 804 804 804 804 803 803 803 802 801 801 801 801 801 800 800 799 799 798 798 797 796 796 795 795 794 793 793 792 791 791 789 788 787 786 785 784 782 780 779 777 775 773 772 770 768 766 764 762 761 760 758 757 756 754 752 751 750 749 748 747
809 810 811 811 811 812 811 811 810 810 809 808 807 807 807 806 806 806 806 805 805 805 804 804 804 804 804 804 804 804 804 804 803 802 802 802 801 801 801 800 800 799 799 798 797 797 796 795 794 793 793 792 792 791 790 789 788 788 787 785 784 783 781 779 777 775 773 772 770 768 766 764 763 762 761 759 757 756 754 752 751 749 748 747 746
812 812 812 812 812 812 812 812 812 811 810 809 809 808 808 808 807 807 807 807 807 806 806 805 805 804 804 804 805 805 805 804 804 803 803 802 802 802 801 801 800 800 799 798 797 796 795 795 794 792 792 792 791 791 790 789 789 788 787 786 784 783 781 779 777 775 773 771 769 768 766 764 763 762 761 759 758 756 754 752 750 749 747 746 745
814 814 813 813 812 812 812 812 812 812 811 811 810 809 809 809 809 809 809 808 808 807 807 807 806 806 806 806 806 806 806 806 805 804 803 803 803 803 802 802 801 800 799 798 798 797 796 796 794 792 791 792 791 791 790 789 789 788 787 786 784 783 781 778 776 775 773 770 768 767 766 764 762 762 760 759 757 756 754 752 750 749 748 746 745
815 815 814 814 813 813 813 813 812 812 812 811 810 810 810 810 810 810 810 810 809 809 809 809 808 808 808 807 807 807 807 806 806 805 805 804 804 803 803 802 801 800 800 799 798 797 797 796 795 793 792 791 791 791 790 789 789 788 787 786 784 783 781 779 776 774 772 770 768 767 765 763 762 761 760 758 757 755 754 752 751 749 748 747 745